| time (UTC) | temp C | wind direction | speed KPH | gust KPH | rain 1hr cm | rain 24hr cm | rain mn cm | humidity % | barometer mb |
| 20260507070405 | 13 | 5 | 3.2 | 12.9 | 0.00 | 0.00 | 0.00 | 71 | 1014.8 |
| 20260507060404 | 11 | 3 | 1.6 | 8.0 | 0.00 | 0.00 | 0.00 | 80 | 1014.5 |
| 20260507050405 | 7 | 2 | 0.0 | 3.2 | 0.00 | 0.00 | 0.00 | 93 | 1014.0 |
| 20260507040904 | 6 | 2 | 1.6 | 3.2 | 0.00 | 0.00 | 0.00 | 91 | 1013.6 |
| 20260507020407 | 6 | 2 | 0.0 | 8.0 | 0.00 | 0.00 | 0.00 | 88 | 1013.1 |
| 20260507010907 | 7 | 2 | 3.2 | 8.0 | 0.00 | 0.00 | 0.00 | 87 | 1012.9 |
| 20260507000407 | 7 | 359 | 3.2 | 12.9 | 0.00 | 0.00 | 0.00 | 87 | 1012.7 |
| 20260506230407 | 8 | 3 | 4.8 | 19.3 | 0.00 | 0.00 | 0.00 | 86 | 1012.6 |
| 20260506220907 | 8 | 9 | 6.4 | 14.5 | 0.00 | 0.00 | 0.00 | 85 | 1012.4 |
| 20260506214406 | 9 | 359 | 9.7 | 20.9 | 0.00 | 0.00 | 0.00 | 83 | 1012.2 |
| 20260506190406 | 12 | 358 | 9.7 | 25.7 | 0.00 | 0.00 | 0.00 | 70 | 1010.6 |
| 20260506180405 | 12 | 6 | 16.1 | 29.0 | 0.00 | 0.00 | 0.00 | 69 | 1010.0 |
| 20260506170906 | 12 | 17 | 3.2 | 9.7 | 0.00 | 0.00 | 0.00 | 68 | 1009.5 |
| 20260506160906 | 13 | 49 | 8.0 | 14.5 | 0.00 | 0.00 | 0.00 | 61 | 1009.2 |
| 20260506150906 | 13 | 43 | 9.7 | 19.3 | 0.00 | 0.00 | 0.00 | 54 | 1009.0 |
| 20260506140406 | 15 | 78 | 8.0 | 27.4 | 0.00 | 0.00 | 0.00 | 52 | 1008.9 |
| 20260506130905 | 15 | 27 | 11.3 | 27.4 | 0.00 | 0.00 | 0.00 | 53 | 1008.8 |
| 20260506110904 | 14 | 75 | 11.3 | 32.2 | 0.00 | 0.00 | 0.00 | 57 | 1008.5 |
| 20260506100905 | 13 | 65 | 11.3 | 27.4 | 0.00 | 0.00 | 0.00 | 67 | 1008.5 |
| 20260506100404 | 13 | 3 | 9.7 | 29.0 | 0.00 | 0.00 | 0.00 | 68 | 1008.5 |
| 20260506090905 | 13 | 5 | 14.5 | 24.1 | 0.00 | 0.00 | 0.00 | 75 | 1008.2 |
| 20260506090405 | 13 | 352 | 14.5 | 25.7 | 0.00 | 0.00 | 0.00 | 74 | 1008.3 |